Starlink 3347

decayed
NORAD ID: 50811 Int'l Des: 2022-001 Owner: SPXS Country: US Constellation: starlink
LEOCIRCULAR
Group

About Starlink 3347

Description loading...

Altitude History

Altitude vs Time

uPlot chart will show altitude changes over time

Two-Line Element Set

1 50811U 22001J 24361.32573620 .19947272 12651-4 21455-3 0 9994
2 50811 53.1938 306.3767 0002751 74.6301 52.5078 16.50408966165930
Epoch: Dec 26, 2024 • Age: 8636 hours

Current Status

Position data unavailable
Launch Date Jan 6, 2022
Age 3.9 years
Decay Date Dec 26, 2024
Type internet

Technical Details

Classification Payload
Mass 297.00 kg
Dry Mass 275.00 kg
Total Mass 297.00 kg
Length 0.20 m
Diameter 2.80 m
Span 9.00 m
Shape Box + pan
Manufacturer SPXS
Bus Type Starlink
Phase Status Reentered
Owner/State SPXS/US

Large Constellations

Loading constellations...